Voltar ao catálogo

FREGAT DEB

LostUNKNOWN
NORAD 45950·DEBRIS·🇷🇺 Russia

Lançado Jul 18, 2011 de Baikonur Cosmodrome

Loading…

Próximas Passagens (próximas 24 horas)

TLE

ObsoletoSource: Space-Track

Época: Sep 2, 2021, 01:34 UTC

1 45950U 11037FF  21245.06575954  .00076187  00000-0  70677-1 0  9997
2 45950  51.4710 272.7569 2397569 287.0170  48.3154  9.93111574    13

Acompanhe FREGAT DEB em tempo real com AllMySat

Download on the App Store